Regional Weather Roundup
Issued by NWS

Home | Current Version | Previous Version | Text Only | Print | Product List | Glossary On
Versions: 1 2 3 4 5 6 7 8 9 10 11 12 13 14 15 16 17 18 19 20 21 22 23 24 25 26 27 28 29 30 31 32 33 34 35 36 37 38 39 40 41 42 43 44 45 46 47 48 49 50
000
ASUS43 KBIS 240320
RWRND

NORTH DAKOTA REGIONAL WEATHER ROUNDUP
NATIONAL WEATHER SERVICE BISMARCK ND
1000 PM CDT TUE SEP 23 2014

NOTE: "FAIR" INDICATES FEW OR NO CLOUDS BELOW 12,000 FEET WITH NO
SIGNIFICANT WEATHER AND/OR OBSTRUCTIONS TO VISIBILITY.


NDZ001>003-009>011-017-240400-
NORTHWEST NORTH DAKOTA

CITY           SKY/WX    TMP DP  RH WIND       PRES   REMARKS
WILLISTON      CLEAR     62  51  67 CALM      29.84R
MINOT          CLEAR     60  55  83 SE9       29.88S
MINOT AFB      CLEAR     60  59  96 SE10      29.87S
$$

NDZ018>021-031>035-040>046-240400-
SOUTHWEST NORTH DAKOTA

CITY           SKY/WX    TMP DP  RH WIND       PRES   REMARKS
BISMARCK       CLOUDY    60  58  92 SE13      29.94S
DICKINSON      CLEAR     61  55  81 S9        29.89R
GARRISON         N/A     59  57  93 SE8       29.90S
HETTINGER ARPT CLEAR     62  57  83 SE6       29.94R
$$

NDZ004>008-012>016-024-026-027-054-240400-
NORTHEAST NORTH DAKOTA

CITY           SKY/WX    TMP DP  RH WIND       PRES   REMARKS
GRAND FORKS    MOCLDY    61  52  72 SE10      30.00F
GRND FRKS AFB  MOCLDY    61  54  78 S13       30.01S
DEVILS LAKE    CLOUDY    61  50  67 S18       29.96S
$$

NDZ022-023-025-028>030-036>039-047>053-240400-
SOUTHEAST NORTH DAKOTA

CITY           SKY/WX    TMP DP  RH WIND       PRES   REMARKS
FARGO          CLOUDY    61  54  77 S14G25    30.03S
JAMESTOWN      CLOUDY    59  55  87 SE13      29.98S
$$



USA.gov is the U.S. government's official web portal to all federal, state and local government web resources and services.